Location: Mexico
(19.4000°N, 99.1500°W)
Time: 01:10:02
(UTC-06:00)

ISS - Pass Details

Date: 15 October 2019
Orbit: 411 x 421 km, 51.6° (Epoch: 15 October)

Event Time Altitude Azimuth Distance (km) Brightness Sun altitude
Rises 18:44:41 0° 301° (WNW) 2,330 1.0 -8.1°
Reaches altitude 10° 18:47:10 10° 282° (WNW) 1,468 0.4 -8.7°
Maximum altitude 18:49:34 19° 235° (SW) 1,053 -0.8 -9.3°
Drops below altitude 10° 18:51:57 10° 188° (S) 1,465 -0.8 -9.8°
Sets 18:54:26 0° 169° (S) 2,324 0.0 -10.4°
